Terug naar catalogus

TIANPING-3A02

ActiefWetenschapLEO
NORAD 63432·PAYLOAD·🇨🇳 China

Gelanceerd Apr 3, 2025 vanaf Taiyuan Satellite Launch Center

Loading…

Volgende Passages (komende 24 uur)

TLE

VersSource: Space-Track

Epoch: Sep 13, 2026, 22:59 UTC

1 63432U 25068A   26256.95781860  .00002254  00000-0  17624-3 0  9990
2 63432  43.0005 297.4496 0236088  56.6888 305.6318 14.84727243 78576

Volg TIANPING-3A02 in realtime met AllMySat

Download on the App Store